Time,TemperatureF,DewpointF,PressureIn,WindDirection,WindDirectionDegrees,WindSpeedMPH,WindSpeedGustMPH,Humidity,HourlyPrecipIn,Conditions,Clouds,dailyrainin,SolarRadiationWatts/m^2,SoftwareType,DateUTC
2013-07-10 00:01:00,62.0,49.0,-100.00,North,351,1.0,3.0,61,-99.99,,,0.00,0.000000,,2013-07-10 06:01:00,
2013-07-10 00:11:00,62.0,49.0,-100.00,North,351,1.0,3.0,61,-99.99,,,0.00,0.000000,,2013-07-10 06:11:00,
2013-07-10 00:42:00,56.0,46.0,-100.00,SSE,147,2.0,3.0,70,-99.99,,,0.00,0.000000,,2013-07-10 06:42:00,
2013-07-10 00:52:00,56.0,46.0,-100.00,SSE,147,2.0,3.0,70,-99.99,,,0.00,0.000000,,2013-07-10 06:52:00,
2013-07-10 01:11:00,56.0,46.0,-100.00,SSE,147,2.0,3.0,70,-99.99,,,0.00,0.000000,,2013-07-10 07:11:00,
2013-07-10 01:43:00,57.0,42.0,-100.00,SSE,156,2.0,3.0,58,-99.99,,,0.00,0.000000,,2013-07-10 07:43:00,
2013-07-10 01:53:00,57.0,42.0,-100.00,SSE,156,2.0,3.0,58,-99.99,,,0.00,0.000000,,2013-07-10 07:53:00,
2013-07-10 02:01:00,57.0,42.0,-100.00,SSE,156,2.0,3.0,58,-99.99,,,0.00,0.000000,,2013-07-10 08:01:00,
2013-07-10 02:11:00,57.0,42.0,-100.00,SSE,156,2.0,3.0,58,-99.99,,,0.00,0.000000,,2013-07-10 08:11:00,
2013-07-10 02:42:00,56.0,41.0,-100.00,SSE,155,2.0,4.0,57,-99.99,,,0.00,0.000000,,2013-07-10 08:42:00,
2013-07-10 02:53:00,56.0,41.0,-100.00,SSE,155,2.0,4.0,57,-99.99,,,0.00,0.000000,,2013-07-10 08:53:00,
2013-07-10 03:02:00,56.0,41.0,-100.00,SSE,155,2.0,4.0,57,-99.99,,,0.00,0.000000,,2013-07-10 09:02:00,
2013-07-10 03:12:00,56.0,41.0,-100.00,SSE,155,2.0,4.0,57,-99.99,,,0.00,0.000000,,2013-07-10 09:12:00,
2013-07-10 03:42:00,54.0,41.0,-100.00,NNE,24,1.0,3.0,61,-99.99,,,0.00,0.000000,,2013-07-10 09:42:00,
2013-07-10 03:53:00,54.0,41.0,-100.00,NNE,24,1.0,3.0,61,-99.99,,,0.00,0.000000,,2013-07-10 09:53:00,
2013-07-10 04:01:00,54.0,41.0,-100.00,NNE,24,1.0,3.0,61,-99.99,,,0.00,0.000000,,2013-07-10 10:01:00,
2013-07-10 04:13:00,54.0,41.0,-100.00,NNE,24,1.0,3.0,61,-99.99,,,0.00,0.000000,,2013-07-10 10:13:00,
2013-07-10 04:50:00,-999.0,-99.9,-100.00,NNW,336,0.0,2.0,-999,-99.99,,,-99.99,,,2013-07-10 10:50:00,
2013-07-10 05:00:00,-999.0,-99.9,-100.00,NNW,336,0.0,2.0,-999,-99.99,,,-99.99,,,2013-07-10 11:00:00,
2013-07-10 05:11:00,59.0,37.0,-100.00,NNW,336,0.0,2.0,44,-99.99,,,0.00,0.000000,,2013-07-10 11:11:00,
2013-07-10 05:43:00,52.0,41.0,-100.00,North,0,0.0,0.0,65,-99.99,,,0.00,0.000000,,2013-07-10 11:43:00,
2013-07-10 05:52:00,52.0,41.0,-100.00,North,0,0.0,0.0,65,-99.99,,,0.00,0.000000,,2013-07-10 11:52:00,
2013-07-10 06:01:00,52.0,41.0,-100.00,North,0,0.0,0.0,65,-99.99,,,0.00,0.000000,,2013-07-10 12:01:00,
2013-07-10 06:11:00,52.0,41.0,-100.00,North,0,0.0,0.0,65,-99.99,,,0.00,0.000000,,2013-07-10 12:11:00,
2013-07-10 06:43:00,52.0,40.0,-100.00,North,0,0.0,0.0,63,-99.99,,,0.00,9.300000,,2013-07-10 12:43:00,
2013-07-10 06:53:00,52.0,40.0,-100.00,North,0,0.0,0.0,63,-99.99,,,0.00,9.300000,,2013-07-10 12:53:00,
2013-07-10 07:01:00,52.0,40.0,-100.00,North,0,0.0,0.0,63,-99.99,,,0.00,9.300000,,2013-07-10 13:01:00,
2013-07-10 07:11:00,52.0,40.0,-100.00,North,0,0.0,0.0,63,-99.99,,,0.00,9.300000,,2013-07-10 13:11:00,
2013-07-10 07:43:00,54.0,45.0,-100.00,ENE,76,1.0,4.0,73,-99.99,,,0.00,146.320007,,2013-07-10 13:43:00,
2013-07-10 07:52:00,54.0,45.0,-100.00,ENE,76,1.0,4.0,73,-99.99,,,0.00,146.320007,,2013-07-10 13:52:00,
2013-07-10 08:01:00,54.0,45.0,-100.00,ENE,76,1.0,4.0,73,-99.99,,,0.00,146.320007,,2013-07-10 14:01:00,
2013-07-10 08:11:00,54.0,45.0,-100.00,ENE,76,1.0,4.0,73,-99.99,,,0.00,146.320007,,2013-07-10 14:11:00,
2013-07-10 08:43:00,61.0,41.0,-100.00,West,275,1.0,3.0,47,-99.99,,,0.00,297.869995,,2013-07-10 14:43:00,
2013-07-10 08:53:00,61.0,41.0,-100.00,West,275,1.0,3.0,47,-99.99,,,0.00,297.869995,,2013-07-10 14:53:00,
2013-07-10 09:01:00,61.0,41.0,-100.00,West,275,1.0,3.0,47,-99.99,,,0.00,297.869995,,2013-07-10 15:01:00,
2013-07-10 09:11:00,61.0,41.0,-100.00,West,275,1.0,3.0,47,-99.99,,,0.00,297.869995,,2013-07-10 15:11:00,
2013-07-10 09:42:00,63.0,43.0,-100.00,West,277,3.0,5.0,46,-99.99,,,0.00,486.029999,,2013-07-10 15:42:00,
2013-07-10 09:52:00,63.0,43.0,-100.00,West,277,3.0,5.0,46,-99.99,,,0.00,486.029999,,2013-07-10 15:52:00,
2013-07-10 10:01:00,63.0,43.0,-100.00,West,277,3.0,5.0,46,-99.99,,,0.00,486.029999,,2013-07-10 16:01:00,
2013-07-10 10:11:00,63.0,43.0,-100.00,West,277,3.0,5.0,46,-99.99,,,0.00,486.029999,,2013-07-10 16:11:00,
2013-07-10 10:44:00,67.0,45.0,-100.00,WNW,298,3.0,6.0,45,-99.99,,,0.00,654.429993,,2013-07-10 16:44:00,
2013-07-10 10:53:00,67.0,45.0,-100.00,WNW,298,3.0,6.0,45,-99.99,,,0.00,654.429993,,2013-07-10 16:53:00,
2013-07-10 11:01:00,67.0,45.0,-100.00,WNW,298,3.0,6.0,45,-99.99,,,0.00,654.429993,,2013-07-10 17:01:00,
2013-07-10 11:11:00,67.0,45.0,-100.00,WNW,298,3.0,6.0,45,-99.99,,,0.00,654.429993,,2013-07-10 17:11:00,
2013-07-10 11:42:00,74.0,45.0,-100.00,WNW,301,1.0,5.0,36,-99.99,,,0.00,793.429993,,2013-07-10 17:42:00,
2013-07-10 11:53:00,74.0,45.0,-100.00,WNW,301,1.0,5.0,36,-99.99,,,0.00,793.429993,,2013-07-10 17:53:00,
2013-07-10 12:44:00,78.0,45.0,-100.00,NNW,328,2.0,6.0,31,-99.99,,,0.00,893.729980,,2013-07-10 18:44:00,
2013-07-10 12:53:00,78.0,45.0,-100.00,NNW,328,2.0,6.0,31,-99.99,,,0.00,893.729980,,2013-07-10 18:53:00,
2013-07-10 13:01:00,78.0,45.0,-100.00,NNW,328,2.0,6.0,31,-99.99,,,0.00,893.729980,,2013-07-10 19:01:00,
2013-07-10 13:42:00,83.0,44.0,-100.00,NW,311,3.0,6.0,25,-99.99,,,0.00,948.359985,,2013-07-10 19:42:00,
2013-07-10 13:53:00,83.0,44.0,-100.00,NW,311,3.0,6.0,25,-99.99,,,0.00,948.359985,,2013-07-10 19:53:00,
2013-07-10 14:01:00,83.0,44.0,-100.00,NW,311,3.0,6.0,25,-99.99,,,0.00,948.359985,,2013-07-10 20:01:00,
2013-07-10 14:43:00,86.0,44.0,-100.00,NW,321,3.0,6.0,23,-99.99,,,0.00,940.219971,,2013-07-10 20:43:00,
2013-07-10 14:52:00,86.0,44.0,-100.00,NW,321,3.0,6.0,23,-99.99,,,0.00,940.219971,,2013-07-10 20:52:00,
2013-07-10 15:01:00,86.0,44.0,-100.00,NW,321,3.0,6.0,23,-99.99,,,0.00,940.219971,,2013-07-10 21:01:00,
2013-07-10 15:11:00,86.0,44.0,-100.00,NW,321,3.0,6.0,23,-99.99,,,0.00,940.219971,,2013-07-10 21:11:00,
2013-07-10 15:41:00,89.0,47.0,-100.00,NNW,336,3.0,7.0,23,-99.99,,,-99.99,882.109985,,2013-07-10 21:41:00,
2013-07-10 15:52:00,89.0,47.0,-100.00,NNW,336,3.0,7.0,23,-99.99,,,-99.99,882.109985,,2013-07-10 21:52:00,
2013-07-10 16:01:00,89.0,47.0,-100.00,NNW,336,3.0,7.0,23,-99.99,,,-99.99,882.109985,,2013-07-10 22:01:00,
2013-07-10 16:11:00,89.0,47.0,-100.00,NNW,336,3.0,7.0,23,-99.99,,,-99.99,882.109985,,2013-07-10 22:11:00,
2013-07-10 16:42:00,91.0,41.0,-100.00,WNW,297,7.0,23.0,17,-99.99,,,0.00,743.809998,,2013-07-10 22:42:00,
2013-07-10 16:53:00,91.0,41.0,-100.00,WNW,297,7.0,23.0,17,-99.99,,,0.00,743.809998,,2013-07-10 22:53:00,
2013-07-10 17:01:00,91.0,41.0,-100.00,WNW,297,7.0,23.0,17,-99.99,,,0.00,743.809998,,2013-07-10 23:01:00,
2013-07-10 17:11:00,91.0,41.0,-100.00,WNW,297,7.0,23.0,17,-99.99,,,0.00,743.809998,,2013-07-10 23:11:00,
2013-07-10 17:52:00,95.0,40.0,-100.00,ENE,73,3.0,7.0,14,-99.99,,,0.00,696.159973,,2013-07-10 23:52:00,
2013-07-10 18:01:00,95.0,40.0,-100.00,ENE,73,3.0,7.0,14,-99.99,,,0.00,696.159973,,2013-07-11 00:01:00,
2013-07-10 18:11:00,95.0,40.0,-100.00,ENE,73,3.0,7.0,14,-99.99,,,0.00,696.159973,,2013-07-11 00:11:00,
2013-07-10 18:42:00,92.0,50.0,-100.00,NW,315,0.0,5.0,23,-99.99,,,0.00,241.389999,,2013-07-11 00:42:00,
2013-07-10 18:52:00,92.0,50.0,-100.00,NW,315,0.0,5.0,23,-99.99,,,0.00,241.389999,,2013-07-11 00:52:00,
2013-07-10 19:01:00,92.0,50.0,-100.00,NW,315,0.0,5.0,23,-99.99,,,0.00,241.389999,,2013-07-11 01:01:00,
2013-07-10 19:11:00,92.0,50.0,-100.00,NW,315,0.0,5.0,23,-99.99,,,0.00,241.389999,,2013-07-11 01:11:00,
2013-07-10 19:43:00,87.0,50.0,-100.00,East,84,3.0,6.0,28,-99.99,,,0.00,145.740005,,2013-07-11 01:43:00,
2013-07-10 19:52:00,87.0,50.0,-100.00,East,84,3.0,6.0,28,-99.99,,,0.00,145.740005,,2013-07-11 01:52:00,
2013-07-10 20:02:00,87.0,50.0,-100.00,East,84,3.0,6.0,28,-99.99,,,0.00,145.740005,,2013-07-11 02:02:00,
2013-07-10 20:11:00,87.0,50.0,-100.00,East,84,3.0,6.0,28,-99.99,,,0.00,145.740005,,2013-07-11 02:11:00,
2013-07-10 20:43:00,88.0,46.0,-100.00,NE,50,1.0,5.0,23,-99.99,,,0.00,189.089996,,2013-07-11 02:43:00,
2013-07-10 20:53:00,88.0,46.0,-100.00,NE,50,1.0,5.0,23,-99.99,,,0.00,189.089996,,2013-07-11 02:53:00,
2013-07-10 21:01:00,88.0,46.0,-100.00,NE,50,1.0,5.0,23,-99.99,,,0.00,189.089996,,2013-07-11 03:01:00,
2013-07-10 21:11:00,88.0,46.0,-100.00,NE,50,1.0,5.0,23,-99.99,,,0.00,189.089996,,2013-07-11 03:11:00,
2013-07-10 22:12:00,78.0,52.0,-100.00,NNE,22,0.0,2.0,41,-99.99,,,0.00,12.670000,,2013-07-11 04:12:00,
2013-07-10 22:42:00,71.0,52.0,-100.00,ESE,123,2.0,4.0,51,-99.99,,,-99.99,0.000000,,2013-07-11 04:42:00,
2013-07-10 22:53:00,71.0,52.0,-100.00,ESE,123,2.0,4.0,51,-99.99,,,-99.99,0.000000,,2013-07-11 04:53:00,
2013-07-10 23:01:00,71.0,52.0,-100.00,ESE,123,2.0,4.0,51,-99.99,,,-99.99,0.000000,,2013-07-11 05:01:00,
2013-07-10 23:12:00,71.0,52.0,-100.00,ESE,123,2.0,4.0,51,-99.99,,,-99.99,0.000000,,2013-07-11 05:12:00,
2013-07-10 23:43:00,79.0,46.0,-100.00,NW,325,1.0,7.0,31,-99.99,,,0.00,0.000000,,2013-07-11 05:43:00,
2013-07-10 23:52:00,79.0,46.0,-100.00,NW,325,1.0,7.0,31,-99.99,,,0.00,0.000000,,2013-07-11 05:52:00,